Lapeer, MI

1:00 PM EDT on October 20, 2017 (GMT -0400)
Lapeer

Weather History for KD95 - February, 2013

Change the Weather History Date:

Wednesday, February 6, 2013

  Actual Average (KFNT) Record (KFNT)
Temperature  
Mean Temperature 16 °F -  
Max Temperature 29 °F 27 °F 56 °F (1938)
Min Temperature 2 °F 14 °F -5 °F (2007)
Degree Days  
Heating Degree Days 50    
Moisture  
Dew Point 12 °F    
Average Humidity 74    
Maximum Humidity 93    
Minimum Humidity 55    
Precipitation  
Precipitation 0.00 in - - ()
Sea Level Pressure  
Sea Level Pressure 30.18 in    
Wind  
Wind Speed 3 mph (SW)    
Max Wind Speed 9 mph    
Max Gust Speed 16 mph    
Visibility 10 miles    
Events Snow    
Averages and records for this station are not official NWS values.
T = Trace of Precipitation, MM = Missing Value Source: NWS Daily Summary

Daily Weather History Graph

Daily Weather History Graph

Search for Another Location

Airport or City:

Trip Planner

Search our weather history database for the weather conditions in past years. The results will help you decide how hot, cold, wet, or windy it might be!

Date:

Astronomy

Feb. 06, 2013 Rise Set
Actual Time 7:42 AM EST 5:52 PM EST
Civil Twilight 7:12 AM EST 6:22 PM EST
Nautical Twilight 6:38 AM EST 6:56 PM EST
Astronomical Twilight 6:05 AM EST 7:29 PM EST
Moon 4:27 AM EST (2/6) 2:06 PM EST (2/6)
Length of Visible Light 11h 09m
Length of Day
10h 10m
Waning Crescent, 17% of the Moon is Illuminated
Feb 6
Waning Crescent
Feb 10
New
Feb 17
First Quarter
Feb 25
Full
Mar 4
Last Quarter

Hourly Weather History & Observations

Time (EST) Temp. Windchill Dew Point Humidity Pressure Visibility Wind Dir Wind Speed Gust Speed Precip Events Conditions
12:12 AM 22.5 °F 12.4 °F 18.5 °F 85% 29.94 in 5.0 mi NNW 9.2 mph 16.1 mph N/A Snow Light Snow
12:32 AM 22.1 °F 12.0 °F 17.8 °F 83% 29.95 in 7.0 mi NNW 9.2 mph - N/A Snow Light Snow
12:53 AM 21.9 °F 14.5 °F 15.8 °F 77% 29.96 in 10.0 mi NNW 5.8 mph - N/A   Overcast
1:12 AM 21.7 °F 12.3 °F 14.9 °F 75% 29.97 in 10.0 mi NW 8.1 mph - N/A   Overcast
1:32 AM 21.0 °F 14.6 °F 14.0 °F 74% 29.98 in 10.0 mi NW 4.6 mph - N/A   Overcast
2:12 AM 18.5 °F 11.7 °F 12.2 °F 76% 30.01 in 10.0 mi NW 4.6 mph - N/A   Clear
2:32 AM 17.8 °F 10.9 °F 11.8 °F 78% 30.02 in 10.0 mi NW 4.6 mph - N/A   Scattered Clouds
2:53 AM 17.1 °F - 11.5 °F 79% 30.03 in 10.0 mi Calm Calm - N/A   Scattered Clouds
3:12 AM 16.7 °F 11.2 °F 11.8 °F 81% 30.05 in 10.0 mi West 3.5 mph - N/A   Clear
3:32 AM 16.7 °F - 11.8 °F 81% 30.04 in 10.0 mi Calm Calm - N/A   Clear
3:53 AM 12.4 °F - 9.1 °F 87% 30.05 in 10.0 mi North - - N/A   Mostly Cloudy
4:12 AM 11.5 °F - 9.5 °F 92% 30.06 in 10.0 mi Calm Calm - N/A   Mostly Cloudy
4:33 AM 10.0 °F - 8.1 °F 92% 30.07 in 10.0 mi Calm Calm - N/A   Scattered Clouds
4:53 AM 9.3 °F - 7.7 °F 93% 30.08 in 10.0 mi Calm Calm - N/A   Clear
5:12 AM 6.4 °F - 3.6 °F 88% 30.10 in 10.0 mi Calm Calm - N/A   Clear
5:33 AM 7.3 °F - 5.7 °F 93% 30.12 in 10.0 mi North - - N/A   Clear
5:53 AM 7.3 °F - 5.2 °F 91% 30.12 in 10.0 mi Calm Calm - N/A   Clear
6:12 AM 5.4 °F - 3.4 °F 92% 30.14 in 10.0 mi Calm Calm - N/A   Clear
6:33 AM 5.9 °F - 3.6 °F 90% 30.14 in 10.0 mi Calm Calm - N/A   Clear
6:53 AM 2.5 °F - -0.4 °F 88% 30.15 in 10.0 mi Calm Calm - N/A   Clear
7:12 AM 4.1 °F - 2.1 °F 91% 30.16 in 10.0 mi Calm Calm - N/A   Scattered Clouds
7:33 AM 4.8 °F - 2.3 °F 89% 30.17 in 10.0 mi Calm Calm - N/A   Scattered Clouds
7:53 AM 3.2 °F - 0.5 °F 89% 30.18 in 10.0 mi Calm Calm - N/A   Clear
8:12 AM 3.9 °F - 1.2 °F 89% 30.19 in 10.0 mi Calm Calm - N/A   Clear
8:33 AM 5.0 °F - 2.8 °F 91% 30.20 in 10.0 mi Calm Calm - N/A   Clear
8:53 AM 8.4 °F - 6.4 °F 92% 30.21 in 10.0 mi Calm Calm - N/A   Clear
9:12 AM 13.3 °F - 10.9 °F 90% 30.22 in 10.0 mi Calm Calm - N/A   Clear
9:33 AM 15.8 °F - 11.7 °F 84% 30.22 in 10.0 mi Calm Calm - N/A   Clear
10:12 AM 19.0 °F - 9.5 °F 66% 30.23 in 10.0 mi Calm Calm - N/A   Clear
10:33 AM 19.8 °F - 9.5 °F 64% 30.22 in 10.0 mi Calm Calm - N/A   Clear
10:53 AM 21.7 °F - 10.2 °F 61% 30.23 in 10.0 mi Calm Calm - N/A   Clear
11:33 AM 22.3 °F - 10.6 °F 61% 30.25 in 10.0 mi Calm Calm - N/A   Clear
11:53 AM 23.5 °F 16.4 °F 11.3 °F 60% 30.24 in 10.0 mi WNW 5.8 mph - N/A   Clear
12:12 PM 24.4 °F - 11.1 °F 57% 30.25 in 10.0 mi Calm Calm - N/A   Clear
12:33 PM 25.0 °F - 12.6 °F 59% 30.24 in 10.0 mi Calm Calm - N/A   Clear
12:53 PM 25.7 °F - 12.4 °F 57% 30.24 in 10.0 mi Calm Calm - N/A   Clear
1:12 PM 26.4 °F 18.9 °F 13.3 °F 58% 30.25 in 10.0 mi West 6.9 mph - N/A   Clear
1:33 PM 27.3 °F 19.9 °F 14.0 °F 57% 30.25 in 10.0 mi West 6.9 mph - N/A   Clear
1:53 PM 26.8 °F 20.2 °F 13.6 °F 58% 30.24 in 10.0 mi WSW 5.8 mph - N/A   Clear
2:12 PM 26.4 °F - 13.6 °F 59% 30.23 in 10.0 mi Calm Calm - N/A   Clear
2:33 PM 27.3 °F 23.4 °F 14.5 °F 59% 30.22 in 10.0 mi SW 3.5 mph - N/A   Scattered Clouds
2:53 PM 28.2 °F 22.0 °F 14.4 °F 56% 30.22 in 10.0 mi WNW 5.8 mph - N/A   Clear
3:12 PM 28.8 °F 21.7 °F 15.6 °F 58% 30.23 in 10.0 mi West 6.9 mph - N/A   Clear
3:33 PM 28.2 °F 23.1 °F 15.1 °F 58% 30.22 in 10.0 mi SSW 4.6 mph - N/A   Clear
3:52 PM 28.4 °F 23.3 °F 15.1 °F 57% 30.22 in 10.0 mi SW 4.6 mph - N/A   Clear
4:12 PM 28.6 °F 24.8 °F 14.7 °F 56% 30.20 in 10.0 mi SW 3.5 mph - N/A   Clear
4:33 PM 29.1 °F - 14.7 °F 55% 30.21 in 10.0 mi Calm Calm - N/A   Clear
4:52 PM 28.9 °F - 14.5 °F 55% 30.21 in 10.0 mi Calm Calm - N/A   Clear
5:13 PM 29.1 °F - 14.9 °F 55% 30.23 in 10.0 mi Calm Calm - N/A   Clear
5:52 PM 27.5 °F - 14.5 °F 58% 30.25 in 10.0 mi Calm Calm - N/A   Clear
6:13 PM 24.8 °F - 14.9 °F 66% 30.25 in 10.0 mi Calm Calm - N/A   Clear
6:33 PM 25.2 °F 20.9 °F 15.1 °F 66% 30.25 in 10.0 mi ESE 3.5 mph - N/A   Clear
6:52 PM 24.6 °F 20.3 °F 15.3 °F 68% 30.27 in 10.0 mi East 3.5 mph - N/A   Clear
7:13 PM 23.0 °F - 15.4 °F 73% 30.27 in 10.0 mi Calm Calm - N/A   Clear
7:33 PM 22.5 °F 17.8 °F 14.9 °F 73% 30.27 in 10.0 mi ESE 3.5 mph - N/A   Clear
7:52 PM 21.4 °F 15.1 °F 14.9 °F 76% 30.27 in 10.0 mi SE 4.6 mph - N/A   Clear
8:13 PM 21.0 °F 14.6 °F 14.9 °F 77% 30.27 in 10.0 mi SE 4.6 mph - N/A   Clear
8:33 PM 21.9 °F 14.5 °F 15.8 °F 77% 30.25 in 10.0 mi SE 5.8 mph - N/A   Mostly Cloudy
8:52 PM 21.9 °F 14.5 °F 15.8 °F 77% 30.25 in 10.0 mi SE 5.8 mph - N/A   Scattered Clouds
9:13 PM 21.9 °F 17.2 °F 15.6 °F 77% 30.25 in 10.0 mi SSE 3.5 mph - N/A   Mostly Cloudy
9:33 PM 20.5 °F 15.6 °F 15.4 °F 81% 30.24 in 10.0 mi ESE 3.5 mph - N/A   Mostly Cloudy
9:52 PM 20.5 °F 15.6 °F 15.4 °F 81% 30.24 in 10.0 mi SSE 3.5 mph - N/A   Overcast
10:13 PM 20.7 °F - 15.6 °F 81% 30.23 in 10.0 mi Calm Calm - N/A   Overcast
10:33 PM 22.3 °F 17.6 °F 16.7 °F 79% 30.23 in 10.0 mi SSE 3.5 mph - N/A   Overcast
10:52 PM 23.9 °F 18.0 °F 16.9 °F 75% 30.23 in 10.0 mi SSE 4.6 mph - N/A   Overcast
11:13 PM 24.3 °F 19.9 °F 17.1 °F 74% 30.24 in 10.0 mi South 3.5 mph - N/A   Overcast
11:33 PM 24.4 °F - 17.1 °F 73% 30.24 in 10.0 mi Calm Calm - N/A   Overcast
11:52 PM 24.4 °F - 17.2 °F 74% 30.25 in 10.0 mi Calm Calm - N/A   Overcast